Time,TemperatureF,DewpointF,PressureIn,WindDirection,WindDirectionDegrees,WindSpeedMPH,WindSpeedGustMPH,Humidity,HourlyPrecipIn,Conditions,Clouds,dailyrainin,SoftwareType,DateUTC
2015-08-31 00:04:00,76.6,75.0,30.00,ESE,112,0.0,0.0,96,0.00,,,0.08,weatherlink.com 1.10,2015-08-31 04:04:00,
2015-08-31 00:19:00,76.6,75.0,30.00,ESE,112,0.0,0.0,96,0.00,,,0.08,weatherlink.com 1.10,2015-08-31 04:19:00,
2015-08-31 00:34:00,76.6,75.0,30.00,ESE,111,0.0,2.0,96,0.00,,,0.08,weatherlink.com 1.10,2015-08-31 04:34:00,
2015-08-31 00:49:00,76.7,76.0,30.00,East,99,1.0,3.0,96,0.00,,,0.08,weatherlink.com 1.10,2015-08-31 04:49:00,
2015-08-31 01:04:00,76.7,76.0,30.00,ESE,111,0.0,2.0,96,0.00,,,0.08,weatherlink.com 1.10,2015-08-31 05:04:00,
2015-08-31 01:19:00,76.6,75.0,29.99,ESE,117,0.0,5.0,96,0.00,,,0.08,weatherlink.com 1.10,2015-08-31 05:19:00,
2015-08-31 01:34:00,76.5,75.0,29.99,East,99,0.0,2.0,96,0.00,,,0.08,weatherlink.com 1.10,2015-08-31 05:34:00,
2015-08-31 01:49:00,76.4,75.0,29.99,East,98,0.0,2.0,96,0.00,,,0.08,weatherlink.com 1.10,2015-08-31 05:49:00,
2015-08-31 02:04:00,76.4,75.0,29.99,East,98,0.0,1.0,96,0.00,,,0.08,weatherlink.com 1.10,2015-08-31 06:04:00,
2015-08-31 02:19:00,76.4,75.0,29.99,East,98,0.0,1.0,96,0.00,,,0.00,weatherlink.com 1.10,2015-08-31 06:19:00,
2015-08-31 02:34:00,76.3,75.0,29.99,East,98,1.0,1.0,96,0.00,,,0.00,weatherlink.com 1.10,2015-08-31 06:34:00,
2015-08-31 02:49:00,76.3,75.0,29.99,East,98,0.0,0.0,96,0.00,,,0.00,weatherlink.com 1.10,2015-08-31 06:49:00,
2015-08-31 03:04:00,76.2,75.0,29.99,East,98,0.0,2.0,96,0.00,,,0.00,weatherlink.com 1.10,2015-08-31 07:04:00,
2015-08-31 03:19:00,76.2,75.0,29.99,East,98,0.0,1.0,96,0.00,,,0.00,weatherlink.com 1.10,2015-08-31 07:19:00,
2015-08-31 03:34:00,76.2,75.0,29.98,East,98,0.0,2.0,96,0.00,,,0.00,weatherlink.com 1.10,2015-08-31 07:34:00,
2015-08-31 03:49:00,76.1,75.0,29.98,East,98,0.0,1.0,96,0.00,,,0.00,weatherlink.com 1.10,2015-08-31 07:49:00,
2015-08-31 04:04:00,76.1,75.0,29.98,East,98,0.0,2.0,96,0.00,,,0.00,weatherlink.com 1.10,2015-08-31 08:04:00,
2015-08-31 04:19:00,76.1,75.0,29.97,East,98,0.0,3.0,96,0.00,,,0.00,weatherlink.com 1.10,2015-08-31 08:19:00,
2015-08-31 04:34:00,76.1,75.0,29.97,East,98,0.0,0.0,96,0.00,,,0.00,weatherlink.com 1.10,2015-08-31 08:34:00,
2015-08-31 04:49:00,76.1,75.0,29.97,ESE,107,0.0,2.0,96,0.00,,,0.00,weatherlink.com 1.10,2015-08-31 08:49:00,
2015-08-31 05:04:00,76.1,75.0,29.97,ESE,105,1.0,2.0,96,0.00,,,0.00,weatherlink.com 1.10,2015-08-31 09:04:00,
2015-08-31 05:19:00,76.0,75.0,29.97,ESE,107,0.0,3.0,96,0.00,,,0.00,weatherlink.com 1.10,2015-08-31 09:19:00,
2015-08-31 05:34:00,76.0,75.0,29.97,ESE,107,0.0,0.0,96,0.00,,,0.00,weatherlink.com 1.10,2015-08-31 09:34:00,
2015-08-31 05:49:00,76.1,75.0,29.97,ESE,107,0.0,0.0,96,0.00,,,0.00,weatherlink.com 1.10,2015-08-31 09:49:00,
2015-08-31 06:04:00,76.1,75.0,29.97,ESE,105,0.0,0.0,96,0.00,,,0.00,weatherlink.com 1.10,2015-08-31 10:04:00,
2015-08-31 06:19:00,76.1,75.0,29.97,East,91,0.0,1.0,96,0.00,,,0.00,weatherlink.com 1.10,2015-08-31 10:19:00,
2015-08-31 06:34:00,76.0,75.0,29.97,East,95,0.0,1.0,96,0.00,,,0.00,weatherlink.com 1.10,2015-08-31 10:34:00,
2015-08-31 06:49:00,76.0,75.0,29.97,ESE,111,0.0,3.0,96,0.00,,,0.00,weatherlink.com 1.10,2015-08-31 10:49:00,
2015-08-31 07:04:00,75.9,75.0,29.98,East,94,0.0,3.0,96,0.00,,,0.00,weatherlink.com 1.10,2015-08-31 11:04:00,
2015-08-31 07:19:00,76.0,75.0,29.98,East,94,0.0,2.0,96,0.00,,,0.00,weatherlink.com 1.10,2015-08-31 11:19:00,
2015-08-31 07:34:00,76.1,75.0,29.98,East,94,0.0,2.0,96,0.00,,,0.00,weatherlink.com 1.10,2015-08-31 11:34:00,
2015-08-31 07:49:00,76.4,75.0,29.99,East,94,1.0,1.0,96,0.00,,,0.00,weatherlink.com 1.10,2015-08-31 11:49:00,
2015-08-31 08:04:00,76.7,76.0,30.00,East,97,1.0,2.0,96,0.00,,,0.00,weatherlink.com 1.10,2015-08-31 12:04:00,
2015-08-31 08:19:00,77.0,76.0,30.00,ESE,104,0.0,4.0,96,0.00,,,0.00,weatherlink.com 1.10,2015-08-31 12:19:00,
2015-08-31 08:34:00,77.4,76.0,30.00,SSE,166,0.0,3.0,96,0.00,,,0.00,weatherlink.com 1.10,2015-08-31 12:34:00,
2015-08-31 08:49:00,78.0,77.0,30.00,East,93,1.0,2.0,96,0.00,,,0.00,weatherlink.com 1.10,2015-08-31 12:49:00,
2015-08-31 09:04:00,79.2,77.0,30.00,East,86,0.0,4.0,94,0.00,,,0.00,weatherlink.com 1.10,2015-08-31 13:04:00,
2015-08-31 09:19:00,80.2,78.0,30.01,ESE,113,0.0,2.0,93,0.00,,,0.00,weatherlink.com 1.10,2015-08-31 13:19:00,
2015-08-31 09:34:00,80.6,78.0,30.02,SE,142,3.0,4.0,91,0.00,,,0.00,weatherlink.com 1.10,2015-08-31 13:34:00,
2015-08-31 09:50:00,80.9,78.0,30.02,ESE,113,0.0,3.0,90,0.00,,,0.00,weatherlink.com 1.10,2015-08-31 13:50:00,
2015-08-31 10:05:00,81.4,78.0,30.02,South,173,0.0,5.0,89,0.00,,,0.00,weatherlink.com 1.10,2015-08-31 14:05:00,
2015-08-31 10:20:00,81.3,78.0,30.02,South,188,2.0,6.0,89,0.00,,,0.00,weatherlink.com 1.10,2015-08-31 14:20:00,
2015-08-31 10:35:00,81.5,78.0,30.03,SSE,162,2.0,6.0,89,0.00,,,0.00,weatherlink.com 1.10,2015-08-31 14:35:00,
2015-08-31 10:50:00,81.6,78.0,30.04,South,175,0.0,8.0,89,0.00,,,0.00,weatherlink.com 1.10,2015-08-31 14:50:00,
2015-08-31 11:05:00,81.7,78.0,30.04,South,175,0.0,4.0,89,0.00,,,0.00,weatherlink.com 1.10,2015-08-31 15:05:00,
2015-08-31 11:20:00,82.2,79.0,30.04,SSE,147,0.0,3.0,89,0.00,,,0.00,weatherlink.com 1.10,2015-08-31 15:20:00,
2015-08-31 11:35:00,82.5,79.0,30.04,South,185,0.0,4.0,88,0.00,,,0.00,weatherlink.com 1.10,2015-08-31 15:35:00,
2015-08-31 11:50:00,82.8,79.0,30.04,ESE,123,0.0,4.0,87,0.00,,,0.00,weatherlink.com 1.10,2015-08-31 15:50:00,
2015-08-31 12:05:00,83.1,79.0,30.04,SE,145,0.0,4.0,86,0.00,,,0.00,weatherlink.com 1.10,2015-08-31 16:05:00,
2015-08-31 12:20:00,83.4,79.0,30.04,SSE,153,2.0,7.0,86,0.00,,,0.00,weatherlink.com 1.10,2015-08-31 16:20:00,
2015-08-31 12:49:00,84.1,79.0,30.04,South,188,0.0,5.0,85,0.00,,,0.00,weatherlink.com 1.10,2015-08-31 16:49:00,
2015-08-31 13:04:00,84.2,79.0,30.03,SSE,147,2.0,4.0,85,0.00,,,0.00,weatherlink.com 1.10,2015-08-31 17:04:00,
2015-08-31 13:34:00,82.5,78.0,30.02,SSW,207,1.0,8.0,85,0.00,,,0.00,weatherlink.com 1.10,2015-08-31 17:34:00,
2015-08-31 13:49:00,82.7,78.0,30.02,SSE,163,1.0,8.0,84,0.00,,,0.00,weatherlink.com 1.10,2015-08-31 17:49:00,
2015-08-31 14:04:00,82.7,78.0,30.02,South,169,2.0,6.0,85,0.00,,,0.00,weatherlink.com 1.10,2015-08-31 18:04:00,